Truckee-Tahoe, CA

1:47 PM PST on January 16, 2018 (GMT -0800)
Truckee-Tahoe

Weather History for KTRK - April, 2013

Change the Weather History Date:

Monday, April 1, 2013

  Actual Average Record
Temperature  
Mean Temperature 37 °F -  
Max Temperature 46 °F 49 °F 75 °F (1966)
Min Temperature 28 °F 23 °F 8 °F (1975)
Degree Days  
Heating Degree Days 28    
Moisture  
Dew Point 31 °F    
Average Humidity 85    
Maximum Humidity 100    
Minimum Humidity 57    
Precipitation  
Precipitation 0.00 in - - ()
Sea Level Pressure  
Sea Level Pressure 30.13 in    
Wind  
Wind Speed 3 mph (SW)    
Max Wind Speed 14 mph    
Max Gust Speed 22 mph    
Visibility 10 miles    
Events Rain , Snow    
Averages and records for this station are not official NWS values.
T = Trace of Precipitation, MM = Missing Value Source: NWS Daily Summary

Daily Weather History Graph

Daily Weather History Graph

Search for Another Location

Airport or City:

Trip Planner

Search our weather history database for the weather conditions in past years. The results will help you decide how hot, cold, wet, or windy it might be!

Date:

Astronomy

Apr. 01, 2013 Rise Set
Actual Time 6:44 AM PDT 7:24 PM PDT
Civil Twilight 6:17 AM PDT 7:51 PM PDT
Nautical Twilight 5:45 AM PDT 8:23 PM PDT
Astronomical Twilight 5:12 AM PDT 8:56 PM PDT
Moon 12:36 AM PDT (4/1) 10:37 AM PDT (4/1)
Length of Visible Light 13h 34m
Length of Day
12h 40m
Waning Gibbous, 66% of the Moon is Illuminated
Apr 1
Waning Gibbous
Apr 2
Last Quarter
Apr 10
New
Apr 18
First Quarter
Apr 25
Full

Hourly Weather History & Observations

Time (PDT) Temp. Windchill Dew Point Humidity Pressure Visibility Wind Dir Wind Speed Gust Speed Precip Events Conditions
12:15 AM 28.4 °F 23.3 °F 26.6 °F 93% 30.07 in 10.0 mi SSE 4.6 mph - N/A   Mostly Cloudy
12:35 AM 28.4 °F - 26.6 °F 93% 30.07 in 10.0 mi Calm Calm - N/A   Mostly Cloudy
12:55 AM 32.0 °F 28.7 °F 28.4 °F 87% 30.07 in 10.0 mi North 3.5 mph - N/A   Mostly Cloudy
1:15 AM 28.4 °F 23.3 °F 26.6 °F 93% 30.07 in 10.0 mi South 4.6 mph - N/A   Overcast
1:35 AM 30.2 °F 26.7 °F 28.4 °F 93% 30.07 in 10.0 mi SSE 3.5 mph - N/A   Overcast
1:55 AM 28.4 °F - 28.4 °F 100% 30.07 in 10.0 mi Calm Calm - N/A   Mostly Cloudy
2:15 AM 30.2 °F - 28.4 °F 93% 30.07 in 10.0 mi Calm Calm - N/A   Mostly Cloudy
2:35 AM 30.2 °F - 28.4 °F 93% 30.07 in 10.0 mi Calm Calm - N/A   Overcast
2:55 AM 30.2 °F 25.4 °F 28.4 °F 93% 30.07 in 10.0 mi South 4.6 mph - N/A   Overcast
3:15 AM 32.0 °F - 28.4 °F 87% 30.07 in 10.0 mi Calm Calm - N/A   Overcast
3:35 AM 32.0 °F - 30.2 °F 93% 30.08 in 6.0 mi Calm Calm - N/A Rain Light Rain
3:55 AM 32.0 °F - 30.2 °F 93% 30.08 in 5.0 mi Calm Calm - N/A Snow Light Snow
4:15 AM 32.0 °F 28.7 °F 30.2 °F 93% 30.08 in 5.0 mi ESE 3.5 mph - N/A Snow Light Snow
4:35 AM 32.0 °F 28.7 °F 32.0 °F 100% 30.08 in 10.0 mi SSE 3.5 mph - N/A   Mostly Cloudy
4:55 AM 32.0 °F - 30.2 °F 93% 30.08 in 10.0 mi Calm Calm - N/A   Overcast
5:15 AM 32.0 °F - 32.0 °F 100% 30.09 in 10.0 mi Calm Calm - N/A   Overcast
5:35 AM 32.0 °F - 30.2 °F 93% 30.08 in 10.0 mi Calm Calm - N/A   Mostly Cloudy
5:55 AM 32.0 °F 28.7 °F 30.2 °F 93% 30.09 in 10.0 mi SW 3.5 mph - N/A   Mostly Cloudy
6:15 AM 32.0 °F - 30.2 °F 93% 30.09 in 10.0 mi Calm Calm - N/A   Mostly Cloudy
6:35 AM 32.0 °F 28.7 °F 30.2 °F 93% 30.09 in 10.0 mi ESE 3.5 mph - N/A   Mostly Cloudy
6:55 AM 30.2 °F 26.7 °F 28.4 °F 93% 30.10 in 10.0 mi SSE 3.5 mph - N/A   Mostly Cloudy
7:45 AM 32.0 °F - 32.0 °F 100% 30.11 in 10.0 mi Calm Calm - N/A   Mostly Cloudy
8:45 AM 37.4 °F 33.8 °F 32.0 °F 81% 30.12 in 10.0 mi SW 4.6 mph - N/A   Mostly Cloudy
9:55 AM 39.2 °F 35.9 °F 32.0 °F 75% 30.13 in 10.0 mi NNW 4.6 mph - N/A   Mostly Cloudy
11:45 AM 41.0 °F 38.0 °F 30.2 °F 65% 30.15 in 10.0 mi WNW 4.6 mph - N/A   Mostly Cloudy
12:55 PM 44.6 °F 40.7 °F 32.0 °F 61% 30.15 in 10.0 mi WSW 6.9 mph - N/A   Mostly Cloudy
1:45 PM 46.4 °F 40.4 °F 32.0 °F 57% 30.14 in 10.0 mi WNW 13.8 mph 21.9 mph N/A   Mostly Cloudy
2:45 PM 46.4 °F 41.1 °F 32.0 °F 57% 30.14 in 10.0 mi SW 11.5 mph 18.4 mph N/A   Mostly Cloudy
4:50 PM 46.4 °F 40.4 °F 32.0 °F 57% 30.13 in 10.0 mi West 13.8 mph 20.7 mph N/A   Scattered Clouds
5:50 PM 44.6 °F 39.7 °F 32.0 °F 61% 30.14 in 10.0 mi WSW 9.2 mph - N/A   Scattered Clouds
5:55 PM 44.6 °F 40.2 °F 32.0 °F 61% 30.14 in 10.0 mi West 8.1 mph - N/A   Clear
6:15 PM 42.8 °F 37.5 °F 32.0 °F 66% 30.14 in 10.0 mi West 9.2 mph - N/A   Clear
6:35 PM 41.0 °F 37.1 °F 32.0 °F 70% 30.15 in 10.0 mi West 5.8 mph - N/A   Clear
6:55 PM 41.0 °F 35.2 °F 32.0 °F 70% 30.15 in 10.0 mi West 9.2 mph - N/A   Clear
7:15 PM 39.2 °F 35.0 °F 32.0 °F 75% 30.16 in 10.0 mi West 5.8 mph - N/A   Clear
7:35 PM 37.4 °F 34.9 °F 32.0 °F 81% 30.16 in 10.0 mi SSW 3.5 mph - N/A   Clear
7:55 PM 37.4 °F - 32.0 °F 81% 30.17 in 10.0 mi Calm Calm - N/A   Clear
8:15 PM 37.4 °F - 32.0 °F 81% 30.17 in 10.0 mi Calm Calm - N/A   Scattered Clouds
8:35 PM 37.4 °F - 32.0 °F 81% 30.18 in 10.0 mi Calm Calm - N/A   Mostly Cloudy
8:55 PM 35.6 °F 31.7 °F 32.0 °F 87% 30.18 in 10.0 mi SSE 4.6 mph - N/A   Partly Cloudy
9:15 PM 35.6 °F - 30.2 °F 81% 30.19 in 10.0 mi Calm Calm - N/A   Clear
9:35 PM 35.6 °F 32.8 °F 32.0 °F 87% 30.20 in 10.0 mi WNW 3.5 mph - N/A   Partly Cloudy
9:55 PM 32.0 °F - 30.2 °F 93% 30.20 in 10.0 mi Calm Calm - N/A   Mostly Cloudy
10:15 PM 32.0 °F - 30.2 °F 93% 30.20 in 10.0 mi Calm Calm - N/A   Overcast
10:35 PM 32.0 °F 28.7 °F 30.2 °F 93% 30.19 in 10.0 mi SSW 3.5 mph - N/A   Overcast
10:55 PM 32.0 °F 28.7 °F 30.2 °F 93% 30.20 in 10.0 mi SW 3.5 mph - N/A   Overcast
11:15 PM 32.0 °F 28.7 °F 30.2 °F 93% 30.20 in 10.0 mi NW 3.5 mph - N/A   Overcast
11:35 PM 33.8 °F - 32.0 °F 93% 30.19 in 10.0 mi Calm Calm - N/A   Overcast
11:55 PM 32.0 °F 28.7 °F 32.0 °F 100% 30.19 in 10.0 mi North 3.5 mph - N/A   Overcast